User: anonymous   Login
Location: Columbia
(38.9520°N, 92.3340°W)
Time: 07:17:49
(UTC-05:00)
Language:

Cosmos 1633 - Orbit

View from above orbital plane
View from above orbital plane
View from above satellite
View from above satellite

Ground track
Ground track

The orbit data is extracted from the following two-line orbital elements,

1 15592U 85020A   15247.17563947  .00003198  00000-0  12793-3 0  9994
2 15592  82.5367 251.0257 0013832 322.9664 152.4623 15.24641182664807
Epoch (UTC): 04 September 2015 04:12:55
Eccentricity: 0.0013832
inclination: 82.5367°
perigee height: 482 km
apogee height: 501 km
right ascension of ascending node: 251.0257°
argument of perigee: 322.9664°
revolutions per day: 15.24641182
mean anomaly at epoch: 152.4623°
orbit number at epoch: 66480

The dashed part of the orbit path shows where the satellite is in the earth's shadow,  

DLR